Hourly Data Report for March 31, 2010

HALIFAX STANFIELD INT'L A
NOVA SCOTIA

44°52'48.060" N
63°30'00.050" W
145.40 m
8202250
71395
YHZ

Download Data

Hourly Data (March 2010)
Hourly Data Report for March 31, 2010
TIME
LST
Temp Definition
°C
Dew Point Definition
°C
Rel Hum Definition
%
Precip. Amount Definition
mm

Wind Dir Definition
10's deg

Wind Spd Definition
km/h
Visibility Definition
km
Stn Press Definition
kPa
Hmdx Definition


Wind Chill Definition


Weather Definition


00:00 7.6 6.5 93   11 22 9.7 99.91     Rain Showers
01:00 8.0 7.1 94   11 20 3.2 99.81     Rain, Fog
02:00 7.7 7.2 97   11 22 4.8 99.71     Rain, Fog
03:00 8.3 7.8 97   10 32 4.8 99.55     Rain, Fog
04:00 8.3 8.0 98   11 26 3.2 99.48     Rain, Fog
05:00 8.7 8.3 97   10 35 3.2 99.42     Moderate Rain, Fog
06:00 9.0 8.7 98   12 41 4.8 99.39     Rain, Fog
07:00 9.0 8.6 97   13 33 3.2 99.42     Rain, Fog
08:00 8.4 8.2 99   13 37 0.6 99.45     Rain, Fog
09:00 8.5 8.3 99   14 24 1.2 99.47     Heavy Rain, Fog
10:00 8.4 8.2 99   14 26 2.0 99.50     Rain, Fog
11:00 8.1 7.8 98   14 19 2.4 99.49     Moderate Rain, Fog
12:00 8.6 8.5 99   14 13 6.4 99.47     Rain, Fog
13:00 8.8 8.6 99   14 11 1.2 99.44     Drizzle, Fog
14:00 9.7 9.6 99   10 15 2.4 99.37     Drizzle, Fog
15:00 10.0 9.9 99   9 11 4.8 99.36     Drizzle, Fog
16:00 9.5 9.3 99   9 13 9.7 99.34     Fog
17:00 9.1 9.1 100   5 13 0.8 99.34     Fog
18:00 8.7 8.6 99   5 7 1.2 99.38     Drizzle, Fog
19:00 8.5 8.3 99   4 11 0.8 99.39     Drizzle, Fog
20:00 8.0 7.8 99   6 15 2.4 99.43     Drizzle, Fog
21:00 7.6 7.5 99   4 6 2.4 99.43     Drizzle, Fog
22:00 7.5 7.3 99   5 11 0.8 99.44     Drizzle, Fog
23:00 7.4 7.2 99   5 15 0.8 99.42     Drizzle, Fog

Notes on Data Quality.

Legend

  • E = Estimated
  • M = Missing
  • NA = Not Available*
  • [empty] = Indicates an unobserved value
Date modified: